Tracking 19908 objects as of 18-Oct-2019
HD Live streaming from Space Station
objects crossing your sky now

COSMOS 1304

Track COSMOS 1304 now!
10-day predictions
COSMOS 1304 is classified as:


NORAD ID: 12803
Int'l Code: 1981-087A
Perigee: 911.7 km
Apogee: 977.5 km
Inclination: 82.9 °
Period: 103.8 minutes
Semi major axis: 7315 km
RCS: 1.592 m2 (large)
Launch date: September 4, 1981
Source: Commonwealth of Independent States (former USSR) (CIS)
Launch site: PLESETSK MISSILE AND SPACE COMPLEX (PKMTR)
aabbcc
Your satellite tracking list
Your tracking list is empty




NASA's NSSDC Master Catalog

Two Line Element Set (TLE):
1 12803U 81087A   19290.87299334 +.00000044 +00000-0 +24519-4 0  9997
2 12803 082.9324 088.3033 0044948 320.5921 039.1974 13.87488539305311
Source of the keplerian elements: AFSPC